• In Deutschland
  • Länderverzeichnis
  • Für 7 Tage
  • Wassertemperatur
  • Satellitenkarten
  • Wetterkarte
  • Widgets
  • user-avatar
    Anmelden

    Stündliche Wetter Sonthofen

    Heute, 18 Dezember, Montag

    Zeit Temperatur Niederschläge Wind Luftdruck Luftfeuchtigkeit
    00:00 -8°C° 0 mm 2 m/S 698 mmHg 92%
    01:00 -9°C° 0 mm 2 m/S 698 mmHg 91%
    02:00 -9°C° 0 mm 2 m/S 698 mmHg 89%
    03:00 -8°C° 0 mm 2 m/S 698 mmHg 87%
    04:00 -8°C° 0 mm 2 m/S 697 mmHg 85%
    05:00 -8°C° 0 mm 2 m/S 697 mmHg 84%
    06:00 -7°C° 0 mm 2 m/S 697 mmHg 82%
    07:00 -6°C° 0 mm 2 m/S 696 mmHg 81%
    08:00 -5°C° 0,1 mm 2 m/S 696 mmHg 82%
    09:00 -4°C° 0,1 mm 2 m/S 696 mmHg 83%
    10:00 -4°C° 0,1 mm 2 m/S 696 mmHg 84%
    11:00 -1°C° 0,2 mm 1 m/S 695 mmHg 85%
    12:00 0°C° 0,2 mm 1 m/S 695 mmHg 87%
    13:00 +1°C° 0,2 mm 1 m/S 695 mmHg 88%
    14:00 0°C° 0,1 mm 1 m/S 695 mmHg 90%
    15:00 0°C° 0,1 mm 1 m/S 695 mmHg 92%
    16:00 0°C° 0,1 mm 1 m/S 696 mmHg 94%
    17:00 -1°C° 0,1 mm 0 m/S 696 mmHg 94%
    18:00 -2°C° 0,1 mm 0 m/S 697 mmHg 95%
    19:00 -2°C° 0,1 mm 0 m/S 697 mmHg 95%
    20:00 -3°C° 0 mm 0 m/S 698 mmHg 95%
    21:00 -3°C° 0 mm 0 m/S 698 mmHg 95%
    22:00 -3°C° 0 mm 0 m/S 698 mmHg 94%
    23:00 -3°C° 0 mm 0 m/S 699 mmHg 94%

    Morgen, 19 Dezember, Dienstag

    Zeit Temperatur Niederschläge Wind Luftdruck Luftfeuchtigkeit
    00:00 -3°C° 0 mm 0 m/S 699 mmHg 95%
    01:00 -3°C° 0 mm 0 m/S 699 mmHg 95%
    02:00 -3°C° 0 mm 0 m/S 700 mmHg 95%
    03:00 -4°C° 0 mm 0 m/S 700 mmHg 95%
    04:00 -4°C° 0 mm 0 m/S 700 mmHg 95%
    05:00 -4°C° 0 mm 0 m/S 701 mmHg 95%
    06:00 -4°C° 0 mm 0 m/S 701 mmHg 95%
    07:00 -4°C° 0 mm 0 m/S 701 mmHg 95%
    08:00 -3°C° 0 mm 0 m/S 702 mmHg 95%
    09:00 -2°C° 0 mm 0 m/S 702 mmHg 94%
    10:00 -2°C° 0 mm 0 m/S 703 mmHg 93%
    11:00 -1°C° 0 mm 0 m/S 703 mmHg 93%
    12:00 +1°C° 0 mm 1 m/S 703 mmHg 92%
    13:00 +2°C° 0 mm 1 m/S 702 mmHg 91%
    14:00 +1°C° 0 mm 1 m/S 703 mmHg 93%
    15:00 +1°C° 0 mm 1 m/S 703 mmHg 94%
    16:00 0°C° 0 mm 1 m/S 703 mmHg 95%
    17:00 -1°C° 0 mm 1 m/S 703 mmHg 96%
    18:00 -2°C° 0 mm 0 m/S 703 mmHg 96%
    19:00 -3°C° 0 mm 0 m/S 704 mmHg 97%
    20:00 -3°C° 0 mm 0 m/S 704 mmHg 96%
    21:00 -3°C° 0 mm 0 m/S 704 mmHg 96%
    22:00 -2°C° 0 mm 1 m/S 704 mmHg 95%
    23:00 -2°C° 0,1 mm 1 m/S 704 mmHg 95%

    übermorgen, 20 Dezember, Mittwoch

    Zeit Temperatur Niederschläge Wind Luftdruck Luftfeuchtigkeit
    00:00 -2°C° 0,1 mm 1 m/S 704 mmHg 95%
    01:00 -2°C° 0,1 mm 1 m/S 704 mmHg 94%
    02:00 -1°C° 0,4 mm 1 m/S 704 mmHg 95%
    03:00 -1°C° 0,4 mm 1 m/S 704 mmHg 96%
    04:00 -1°C° 0,4 mm 1 m/S 704 mmHg 96%
    05:00 -1°C° 0,6 mm 1 m/S 704 mmHg 96%
    06:00 -1°C° 0,6 mm 1 m/S 704 mmHg 96%
    07:00 -3°C° 0,6 mm 2 m/S 703 mmHg 96%
    08:00 -2°C° 0,5 mm 2 m/S 703 mmHg 96%
    09:00 -2°C° 0,5 mm 2 m/S 704 mmHg 95%
    10:00 -1°C° 0,5 mm 2 m/S 704 mmHg 95%
    11:00 -1°C° 0,5 mm 2 m/S 703 mmHg 95%
    12:00 +1°C° 0,5 mm 2 m/S 703 mmHg 96%
    13:00 +1°C° 0,5 mm 2 m/S 703 mmHg 96%
    14:00 +1°C° 0,5 mm 2 m/S 703 mmHg 96%
    15:00 +1°C° 0,5 mm 2 m/S 703 mmHg 96%
    16:00 +1°C° 0,5 mm 2 m/S 703 mmHg 97%
    17:00 +1°C° 0,7 mm 2 m/S 703 mmHg 97%
    18:00 +1°C° 0,7 mm 2 m/S 703 mmHg 97%
    19:00 +1°C° 0,7 mm 2 m/S 703 mmHg 97%
    20:00 +1°C° 0,9 mm 2 m/S 704 mmHg 97%
    21:00 +1°C° 0,9 mm 2 m/S 704 mmHg 97%
    22:00 +1°C° 0,9 mm 2 m/S 704 mmHg 97%
    23:00 +1°C° 0,7 mm 2 m/S 704 mmHg 97%

    21 Dezember, Donnerstag

    Zeit Temperatur Niederschläge Wind Luftdruck Luftfeuchtigkeit
    00:00 +1°C° 0,7 mm 2 m/S 704 mmHg 97%
    01:00 +1°C° 0,7 mm 2 m/S 704 mmHg 97%
    02:00 +2°C° 0,5 mm 2 m/S 704 mmHg 97%
    03:00 +2°C° 0,5 mm 2 m/S 704 mmHg 97%
    04:00 +2°C° 0,5 mm 2 m/S 704 mmHg 97%
    05:00 +2°C° 0,3 mm 2 m/S 704 mmHg 97%
    06:00 +2°C° 0,3 mm 2 m/S 705 mmHg 97%
    07:00 +3°C° 0,3 mm 1 m/S 705 mmHg 97%
    08:00 +3°C° 0,2 mm 1 m/S 705 mmHg 98%
    09:00 +3°C° 0,2 mm 1 m/S 705 mmHg 98%
    10:00 +4°C° 0,2 mm 1 m/S 705 mmHg 98%
    11:00 +3°C° 0 mm 2 m/S 705 mmHg 98%
    12:00 +3°C° 0 mm 2 m/S 705 mmHg 98%
    13:00 +3°C° 0 mm 2 m/S 705 mmHg 99%
    14:00 +3°C° 0,1 mm 2 m/S 705 mmHg 98%
    15:00 +3°C° 0,1 mm 2 m/S 705 mmHg 98%
    16:00 +3°C° 0,1 mm 2 m/S 705 mmHg 98%
    17:00 +3°C° 0,3 mm 2 m/S 705 mmHg 98%
    18:00 +3°C° 0,3 mm 2 m/S 705 mmHg 97%
    19:00 +3°C° 0,3 mm 2 m/S 705 mmHg 96%
    20:00 +3°C° 0,8 mm 2 m/S 705 mmHg 96%
    21:00 +3°C° 0,8 mm 2 m/S 705 mmHg 97%
    22:00 +2°C° 0,8 mm 3 m/S 705 mmHg 97%
    23:00 +2°C° 1 mm 3 m/S 705 mmHg 97%

    22 Dezember, Freitag

    Zeit Temperatur Niederschläge Wind Luftdruck Luftfeuchtigkeit
    00:00 +2°C° 1 mm 3 m/S 705 mmHg 98%
    01:00 +2°C° 1 mm 3 m/S 704 mmHg 98%
    02:00 +2°C° 1,2 mm 3 m/S 704 mmHg 98%
    03:00 +2°C° 1,2 mm 3 m/S 704 mmHg 98%
    04:00 +2°C° 1,2 mm 3 m/S 704 mmHg 98%
    05:00 +3°C° 0,5 mm 2 m/S 704 mmHg 98%
    06:00 +3°C° 0,5 mm 2 m/S 704 mmHg 98%
    07:00 +3°C° 0,5 mm 2 m/S 705 mmHg 98%
    08:00 +3°C° 0,3 mm 2 m/S 705 mmHg 98%
    09:00 +3°C° 0,3 mm 2 m/S 705 mmHg 99%
    10:00 +3°C° 0,3 mm 2 m/S 705 mmHg 99%
    11:00 +3°C° 0,2 mm 2 m/S 705 mmHg 99%
    12:00 +4°C° 0,2 mm 1 m/S 705 mmHg 98%
    13:00 +4°C° 0,2 mm 1 m/S 705 mmHg 98%
    14:00 +4°C° 0,1 mm 1 m/S 705 mmHg 98%
    15:00 +4°C° 0,1 mm 1 m/S 705 mmHg 98%
    16:00 +3°C° 0,1 mm 1 m/S 705 mmHg 98%
    17:00 +3°C° 0 mm 1 m/S 705 mmHg 98%
    18:00 +3°C° 0 mm 1 m/S 705 mmHg 98%
    19:00 +2°C° 0 mm 1 m/S 705 mmHg 98%
    20:00 +2°C° 0 mm 1 m/S 705 mmHg 97%
    21:00 -1°C° 0 mm 2 m/S 705 mmHg 97%
    22:00 -2°C° 0 mm 2 m/S 705 mmHg 96%
    23:00 -2°C° 0 mm 2 m/S 705 mmHg 95%

    23 Dezember, Samstag

    Zeit Temperatur Niederschläge Wind Luftdruck Luftfeuchtigkeit
    00:00 -2°C° 0 mm 2 m/S 704 mmHg 93%
    01:00 -2°C° 0 mm 2 m/S 704 mmHg 92%
    02:00 -2°C° 0 mm 3 m/S 704 mmHg 89%
    03:00 -2°C° 0 mm 3 m/S 703 mmHg 86%
    04:00 -2°C° 0 mm 3 m/S 703 mmHg 82%
    05:00 -3°C° 0 mm 4 m/S 702 mmHg 82%
    06:00 -2°C° 0 mm 4 m/S 702 mmHg 81%
    07:00 -2°C° 0 mm 4 m/S 702 mmHg 80%
    08:00 -2°C° 0,4 mm 4 m/S 702 mmHg 84%
    09:00 -2°C° 0,4 mm 4 m/S 702 mmHg 88%
    10:00 -2°C° 0,4 mm 4 m/S 702 mmHg 92%
    11:00 -2°C° 0,7 mm 4 m/S 702 mmHg 93%
    12:00 -1°C° 0,7 mm 4 m/S 701 mmHg 94%
    13:00 -1°C° 0,7 mm 4 m/S 701 mmHg 95%
    14:00 -1°C° 0,5 mm 4 m/S 701 mmHg 95%
    15:00 -1°C° 0,5 mm 4 m/S 702 mmHg 96%
    16:00 0°C° 0,5 mm 3 m/S 702 mmHg 96%
    17:00 0°C° 0,3 mm 3 m/S 702 mmHg 97%
    18:00 0°C° 0,3 mm 3 m/S 703 mmHg 97%
    19:00 +1°C° 0,3 mm 2 m/S 703 mmHg 97%
    20:00 +1°C° 0,1 mm 2 m/S 703 mmHg 97%
    21:00 +1°C° 0,1 mm 2 m/S 704 mmHg 97%
    22:00 -1°C° 0,1 mm 2 m/S 704 mmHg 97%
    23:00 +1°C° 0 mm 1 m/S 703 mmHg 96%
    Mehr zeigen